Tracking 29892 objects as of 21-Nov-2024
HD Live streaming from Space Station
objects crossing your sky now

COSMOS 249 DEB

Track COSMOS 249 DEB now!
10-day predictions


NORAD ID: 19362
Int'l Code: 1968-091DJ
Perigee: 524.9 km
Apogee: 1,187.0 km
Inclination: 62.8 °
Period: 101.9 minutes
Semi major axis: 7226 km
RCS: 0.01 m2 (small)
Launch date: October 20, 1968
Source: Commonwealth of Independent States (former USSR) (CIS)
Launch site: TYURATAM MISSILE AND SPACE COMPLEX (TTMTR)

Note: This is SATELLITE DEBRIS
Your satellite tracking list
Your tracking list is empty




NASA's NSSDC Master Catalog

Two Line Element Set (TLE):
1 19362U 68091DJ  24325.38051797  .00018057  00000-0  35051-2 0  9998
2 19362  62.7868 245.4350 0458127 333.3938  24.4242 14.13093214838489
Source of the keplerian elements: AFSPC